Weather History for McAllen, TX

Change the Weather History Date:

Saturday, March 31, 2012

  Actual Average Record
Temperature  
Mean Temperature 80 °F 74 °F  
Max Temperature 91 °F 85 °F 100 °F (1989)
Min Temperature 68 °F 63 °F 38 °F (1987)
Degree Days  
Heating Degree Days 0 1  
Month to date heating degree days 24 42  
Since 1 July heating degree days 403 571  
Cooling Degree Days 15 9  
Month to date cooling degree days 317 218  
Year to date cooling degree days 567 377  
Growing Degree Days 29 (Base 50)    
Moisture  
Dew Point 69 °F    
Average Humidity 76    
Maximum Humidity 100    
Minimum Humidity 52    
Precipitation  
Precipitation T in 0.03 in 0.71 in (1945)
Month to date precipitation 4.48 1.03  
Year to date precipitation 7.96 3.19  
Sea Level Pressure  
Sea Level Pressure 29.84 in    
Wind  
Wind Speed 7 mph (SE)    
Max Wind Speed 20 mph    
Max Gust Speed 24 mph    
Visibility 7 miles    
Events Fog , Rain    
T = Trace of Precipitation, MM = Missing Value Source: NWS Daily Summary

Daily Weather History Graph

Daily Weather History Graph

Search for Another Location

Airport:

Trip Planner

Search our weather history database for the weather conditions in past years. The results will help you decide how hot, cold, wet, or windy it might be!

Date:

Astronomy

Mar. 31, 2012 Rise Set
Actual Time 7:24 AM CDT 7:49 PM CDT
Civil Twilight 7:01 AM CDT 8:12 PM CDT
Nautical Twilight 6:34 AM CDT 8:40 PM CDT
Astronomical Twilight 6:06 AM CDT 9:07 PM CDT
Moon 1:53 PM CDT (3/31) 2:46 AM CDT (3/31)
Length of Visible Light 13h 11m
Length of Day
12h 25m
First Quarter, 59% of the Moon is Illuminated
Mar 31
First Quarter
Apr 6
Full
Apr 13
Last Quarter
Apr 21
New
Apr 29
First Quarter

Hourly Weather History & Observations

Time (CDT) Temp. Heat Index Dew Point Humidity Pressure Visibility Wind Dir Wind Speed Gust Speed Precip Events Conditions
12:53 AM 75.9 °F - 71.1 °F 85% 29.89 in 10.0 mi Variable 3.5 mph - N/A   Overcast
1:43 AM 75.2 °F - 71.6 °F 89% 29.85 in 10.0 mi SE 3.5 mph - N/A   Scattered Clouds
1:53 AM 73.9 °F - 70.0 °F 87% 29.84 in 10.0 mi SSE 3.5 mph - N/A   Clear
2:53 AM 73.0 °F - 70.0 °F 90% 29.82 in 7.0 mi Calm Calm - N/A   Clear
3:45 AM 69.8 °F - 68.0 °F 94% 29.82 in 1.8 mi Calm Calm - N/A   Clear
3:53 AM 70.0 °F - 68.0 °F 93% 29.82 in 1.8 mi Calm Calm - N/A   Clear
3:56 AM 69.8 °F - 68.0 °F 94% 29.82 in 3.0 mi Calm Calm - N/A   Clear
4:53 AM 70.0 °F - 68.0 °F 93% 29.81 in 3.0 mi Calm Calm - N/A   Clear
5:53 AM 70.0 °F - 68.0 °F 93% 29.82 in 5.0 mi Calm Calm - N/A   Clear
6:53 AM 68.0 °F - 66.0 °F 93% 29.83 in 7.0 mi Calm Calm - N/A   Clear
7:28 AM 69.8 °F - 66.2 °F 88% 29.85 in 2.0 mi ESE 5.8 mph - N/A   Partly Cloudy
7:30 AM 69.8 °F - 66.2 °F 88% 29.85 in 0.8 mi ESE 5.8 mph - N/A   Mist
7:38 AM 68.0 °F - 66.2 °F 94% 29.86 in 0.2 mi ESE 4.6 mph - N/A Fog Fog
7:53 AM 68.0 °F - 68.0 °F 100% 29.86 in 0.2 mi East 4.6 mph - N/A Fog Fog
8:36 AM 69.8 °F - 69.8 °F 100% 29.87 in 1.0 mi ESE 4.6 mph - N/A   Mist
8:43 AM 69.8 °F - 69.8 °F 100% 29.87 in 3.0 mi ESE 4.6 mph - N/A   Mostly Cloudy
8:51 AM 69.8 °F - 69.8 °F 100% 29.87 in 4.0 mi ESE 3.5 mph - N/A   Scattered Clouds
8:53 AM 70.0 °F - 70.0 °F 100% 29.87 in 5.0 mi Calm Calm - N/A   Scattered Clouds
9:53 AM 75.9 °F - 68.0 °F 76% 29.88 in 10.0 mi ESE 5.8 mph - N/A   Clear
10:53 AM 81.0 °F 83.0 °F 66.0 °F 60% 29.88 in 10.0 mi East 5.8 mph - N/A   Clear
11:53 AM 82.9 °F 84.6 °F 64.9 °F 54% 29.87 in 10.0 mi SE 6.9 mph - N/A   Clear
12:53 PM 86.0 °F 90.1 °F 69.1 °F 57% 29.85 in 10.0 mi East 6.9 mph - 0.00 in Rain Light Rain
1:53 PM 88.0 °F 92.9 °F 70.0 °F 55% 29.83 in 10.0 mi ESE 12.7 mph - 0.00 in Rain Light Rain
2:53 PM 89.1 °F 93.7 °F 69.1 °F 52% 29.81 in 10.0 mi SE 11.5 mph - 0.00 in Rain Light Rain
3:53 PM 90.0 °F 96.4 °F 71.1 °F 54% 29.78 in 10.0 mi SE 13.8 mph - 0.00 in Rain Light Rain
4:53 PM 89.1 °F 95.0 °F 71.1 °F 55% 29.77 in 10.0 mi SE 19.6 mph 24.2 mph 0.00 in   Clear
5:53 PM 86.0 °F 91.5 °F 71.1 °F 61% 29.77 in 10.0 mi SSE 13.8 mph 21.9 mph N/A   Partly Cloudy
6:53 PM 82.9 °F 88.0 °F 72.0 °F 69% 29.78 in 10.0 mi SSE 11.5 mph - N/A   Partly Cloudy
7:53 PM 80.1 °F 83.6 °F 71.1 °F 74% 29.81 in 10.0 mi SE 11.5 mph - N/A   Scattered Clouds
8:53 PM 78.1 °F - 71.1 °F 79% 29.83 in 10.0 mi SSE 8.1 mph - N/A   Scattered Clouds
9:02 PM 78.8 °F - 71.6 °F 78% 29.83 in 10.0 mi SSE 8.1 mph - N/A   Mostly Cloudy
9:24 PM 77.0 °F - 71.6 °F 83% 29.83 in 9.0 mi SSE 8.1 mph - N/A   Scattered Clouds
9:53 PM 77.0 °F - 71.1 °F 82% 29.84 in 8.0 mi SSE 6.9 mph - N/A   Clear
10:53 PM 75.0 °F - 71.1 °F 87% 29.85 in 8.0 mi SE 5.8 mph - N/A   Clear
11:53 PM 73.9 °F - 71.1 °F 91% 29.85 in 6.0 mi ESE 3.5 mph - N/A   Clear